Regional Weather Roundup
Issued by NWS Northern Indiana

Home | Current Version | Previous Version | Graphics & Text | Print | Product List | Glossary On
Versions: 1 2 3 4 5 6 7 8 9 10 11 12 13 14 15 16 17 18 19 20 21 22 23 24 25 26 27 28 29 30 31 32 33 34 35 36 37 38 39 40 41 42 43 44 45 46 47 48 49 50
000
ASUS43 KIWX 281510
RWRIWX

KIWX WEATHER ROUNDUP
NATIONAL WEATHER SERVICE NORTHERN INDIANA
1000 AM EST WED JAN 28 2015

NOTE: "FAIR" INDICATES FEW OR NO CLOUDS BELOW 12,000 FEET WITH NO
SIGNIFICANT WEATHER AND/OR OBSTRUCTIONS TO VISIBILITY.

* THESE STATIONS ARE NOT UNDER NWS QUALITY CONTROL. THEY ALSO MAY NOT
  REPORT WEATHER SUCH AS PRECIPITATION OR FOG.

INZ001>027-281600-
NORTHERN INDIANA

CITY           SKY/WX    TMP DP  RH WIND       PRES   REMARKS
GARY*          MOSUNNY   27  10  50 SE12      30.30F WCI  16
VALPARAISO     SUNNY     23  13  65 S8        30.30F WCI  14
MICHIGAN CITY* SUNNY     27  10  50 S7        30.30F WCI  19
LAPORTE*       SUNNY     24  16  69 S8        30.31S WCI  15
KNOX*          SUNNY     23   3  42 SE7       30.30F WCI  15
SOUTH BEND     MOSUNNY   24  12  60 SE12      30.31F WCI  13
ELKHART*       SUNNY     21  10  63 SE7       30.32F WCI  13
GOSHEN         MOSUNNY   21  13  71 SE7       30.32F WCI  12
MONTICELLO*    SUNNY     21  14  73 CALM      30.32S
LOGANSPORT*    SUNNY     21  16  79 SE3       30.33S
ROCHESTER*     SUNNY     25  18  74 SE9       30.33R WCI  15
WARSAW*        SUNNY     21  14  73 S6        30.32F WCI  14
ANGOLA*        SUNNY     16  10  79 CALM      30.32F
FORT WAYNE     MOSUNNY   16  12  84 SE3       30.36R
HUNTINGTON*    SUNNY     18   8  67 SE6       30.34F WCI   9
PERU/GRISSOM   SUNNY     18  12  75 SE8       30.32F WCI   8
MARION*        SUNNY     19  14  81 SE7       30.34F WCI  10

$$
INZ028>050-281600-
CENTRAL INDIANA

CITY           SKY/WX    TMP DP  RH WIND       PRES   REMARKS
LAFAYETTE      SUNNY     25  18  74 SE5       30.32S WCI  19
KOKOMO*        SUNNY     19  16  86 SE9       30.33S WCI   9
MUNCIE*        SUNNY     19  13  77 SE7       30.33F HAZE    WCI  10
INDIANAPOLIS   MOSUNNY   22  16  78 S10       30.33F WCI  11

$$
MIZ043>046-050>051-056>058-064>065-071>073-077>080-281600-
SOUTHWEST LOWER MICHIGAN

CITY           SKY/WX    TMP DP  RH WIND       PRES   REMARKS
BATTLE CREEK   SUNNY     21  11  65 S8        30.31S WCI  11
BENTON HARBOR  MOSUNNY   22  14  71 S7        30.30F WCI  13
COLDWATER*     MOSUNNY   19  12  76 S6        30.31F WCI  10
HILLSDALE*     MOSUNNY   19  15  82 CALM      30.30F
HOLLAND        MOSUNNY   22  13  68 S8        30.30F WCI  12
GRAND RAPIDS   PTSUNNY   20  13  74 S9        30.30S WCI   9
KALAMAZOO      SUNNY     19  12  74 S9        30.31S WCI   8
STURGIS*       MOSUNNY   19  12  73 S7        30.31S WCI  10
THREE RIVERS*  FAIR      20  13  77 S7        30.32S WCI  11

$$
OHZ001>008-015>018-024>025-281600-
NORTHWEST OHIO

CITY           SKY/WX    TMP DP  RH WIND       PRES   REMARKS
WAUSEON*       FAIR      18  10  73 CALM      30.35F
DEFIANCE       MOSUNNY   13  10  88 CALM      30.37F
FINDLAY        MOSUNNY    8   6  92 S5        30.36R FOG     WCI   0
TOLEDO EXPRESS MOSUNNY   16  11  80 CALM      30.36S
TOLEDO METCALF SUNNY     15  10  80 SW3       30.38S
LIMA           MOSUNNY   12   8  84 S6        30.35S FOG     WCI   3

$$
AND FOR LAKE MICHIGAN COASTAL AND OPEN LAKE BUOY OBSERVATIONS

STATION/POSITION TEMP    WIND        PRES    VSBY  WAVE
                 AIR SEA DIR/SP/G                  HT/PER
                 (F)     (DEG/KT/KT) (MB)    (MI)  (FT/S)
CALUMET HARBOR    24     160/ 10/ 13   N/A
MICHIGAN CITY     24     140/ 10/ 13   N/A
SAINT JOSEPH      24     150/  3/  8 1026.4R
SAINT JOSEPH CG                      1027.7F     6   0

$$
&&


USA.gov is the U.S. government's official web portal to all federal, state and local government web resources and services.